SCP
0 -0 0 0 0 0 0 0 0 0 0 0 0 0 0 0 0 0 0 0 -0 -0 0 0 0 0 0 1 0 0 0 0 0 0 0 0 0 0 0 0 0 0 0 0
0 0 0 0 0 0 -0 -0 0 -0 0 0 0 0 0 0 0 0 1 1 0 0 0 0 0 0 0 0 0 0 0 0 0 0 0 0 0 0 0 0 0 0 0 0
0 0 0 0 0 0 -0 -0 0 1 0 0 0 0 0 0 0 0 0 1 1 1 0 0 0 0 0 0 0 0 0 0 0 0 0 0 0 0 0 0 0 0 0 0
0 0 0 0 0 0 0 0 0 0 1 0 0 0 0 0 0 0 0 0 0 0 0 0 1 0 0 0 0 0 0 0 0 0 0 0 0 0 0 0 0 0 0 0
0 0 0 0 0 0 0 0 0 0 0 0 0 1 0 0 0 0 0 0 0 0 0 0 0 1 0 0 0 0 0 0 0 0 0 0 0 0 0 0 0 0 0 0
0 0 -0 0 0 0 0 0 0 -0 -0 0 0 0 1 0 0 0 0 0 0 0 0 0 0 0 0 0 0 0 0 0 0 0 0 0 0 0 0 0 0 0 0 0
0 0 0 0 0 -0 0 0 0 -0 -0 0 0 0 0 0 0 0 0 0 0 0 0 0 0 0 0 0 0 0 0 0 0 0 0 0 0 0 0 0 0 0 0 0
0 0 0 0 0 0 0 0 0 0 -0 0 0 0 0 0 0 0 0 0 0 0 0 0 0 0 0 0 0 0 0 0 0 0 0 0 0 0 0 0 0 0 0 0
0 0 0 0 -0 -0 0 0 0 0 0 0 0 0 0 0 0 0 0 0 0 0 0 0 0 0 0 0 0 0 0 0 0 0 0 0 0 0 0 0 0 0 0 0
0 0 0 -0 0 0 0 0 0 0 -0 -0 0 0 0 0 0 0 0 0 0 0 0 0 0 0 0 0 0 0 0 0 0 0 0 0 0 0 0 0 0 0 0 0
0 0 -0 0 0 0 0 0 0 0 0 0 0 0 0 0 0 0 0 0 0 0 0 0 0 0 0 0 0 0 0 0 0 0 0 0 0 0 0 0 0 0 0 0
0 0 0 0 0 0 0 0 0 0 0 0 0 0 0 0 0 0 0 0 0 0 0 0 0 0 0 0 0 0 0 0 0 0 0 0 0 0 0 0 0 0 0 0
0 0 0 0 0 0 0 0 0 0 0 0 0 0 0 0 0 0 0 0 0 0 0 0 0 0 0 0 0 0 0 0 0 0 0 0 0 0 0 0 0 0 0 0
0 0 0 0 0 0 0 0 0 0 0 0 0 0 0 0 0 0 0 0 0 0 0 0 0 0 0 0 0 0 0 0 0 0 0 0 0 0 0 0 0 0 0 0
0 0 0 0 0 0 0 0 0 0 0 0 0 0 0 0 0 0 0 0 0 0 0 0 0 0 0 0 0 0 0 0 0 0 0 0 0 0 0 0 0 0 0 0
0 0 0 0 0 0 0 0 0 0 0 0 0 0 0 0 0 0 0 0 0 0 0 0 0 0 0 0 0 0 0 0 0 0 0 0 0 0 0 0 0 0 0 0
0 0 0 0 0 0 0 0 0 0 0 0 0 0 0 0 0 0 0 0 0 0 0 0 0 0 0 0 0 0 0 0 0 0 0 0 0 0 0 0 0 0 0 0
0 0 0 0 0 0 0 0 0 0 0 0 0 0 0 0 0 0 0 0 0 0 0 0 0 0 0 0 0 0 0 0 0 0 0 0 0 0 0 0 0 0 0 0
0 0 0 0 0 0 0 0 0 0 0 0 0 0 0 0 0 0 0 0 0 0 0 0 0 0 0 0 0 0 0 0 0 0 0 0 0 0 0 0 0 0 0 0
0 0 0 0 0 0 0 0 0 0 0 0 0 0 0 0 0 0 0 0 0 0 0 0 0 0 0 0 0 0 0 0 0 0 0 0 0 0 0 0 0 0 0 0
0 0 0 0 0 0 0 0 0 0 0 0 0 0 0 0 0 0 0 0 0 0 0 0 0 0 0 0 0 0 0 0 0 0 0 0 0 0 0 0 0 0 0 0
0 0 0 0 0 0 0 0 0 0 0 0 0 0 0 0 0 0 0 0 0 0 0 0 0 0 0 0 0 0 0 0 0 0 0 0 0 0 0 0 0 0 0 0
0 0 0 0 0 0 0 0 0 0 0 0 0 0 0 0 0 0 0 0 0 0 0 0 0 0 0 0 0 0 0 0 0 0 0 0 0 0 0 0 0 0 0 0
0 0 0 0 0 0 0 0 0 0 0 0 0 0 0 0 0 0 0 0 0 0 0 0 0 0 0 0 0 0 0 0 0 0 0 0 0 0 0 0 0 0 0 0
0 0 0 0 0 0 0 0 0 0 0 0 0 0 0 0 0 0 0 0 0 0 0 0 0 0 0 0 0 0 0 0 0 0 0 0 0 0 0 0 0 0 0 0
0 0 0 0 0 0 0 0 0 0 0 0 0 0 0 0 0 0 0 0 0 0 0 0 0 0 0 0 0 0 0 0 0 0 0 0 0 0 0 0 0 0 0 0
0 0 0 0 0 0 0 0 0 0 0 0 0 0 0 0 0 0 0 0 0 0 0 0 0 0 0 0 0 0 0 0 0 0 0 0 0 0 0 0 0 0 0 0
Wind_Speed_500mb
18 5 7 15 16 18 21 34 9 4 18 20 13 13 9 17 42 56 72 81 67 77 85 84 62 61 55 54 58 61 56 49 41 50 46 52 43 39 40 37 28 28 28 26
16 22 21 21 28 26 29 44 33 15 16 10 9 34 42 38 37 22 39 58 64 68 72 85 93 67 45 52 44 72 52 47 46 42 38 41 46 52 43 41 34 33 32 34
8 16 17 15 31 35 24 31 12 16 11 7 8 13 18 38 57 35 26 35 51 60 55 59 88 78 60 51 58 55 50 52 50 42 41 44 53 52 57 46 47 44 43 39
1 11 3 5 27 31 33 27 25 25 26 14 17 18 22 32 40 38 21 19 36 48 48 50 50 48 52 58 53 48 44 37 36 34 35 38 31 43 54 49 50 49 45 30
7 6 8 3 14 22 13 15 26 14 9 23 17 39 46 24 22 21 7 8 17 27 48 55 47 54 53 49 45 38 28 25 27 20 15 12 13 11 42 45 43 34 33 32
9 3 7 2 13 18 14 7 26 18 4 13 15 9 5 18 15 9 3 4 6 14 24 41 44 39 41 42 36 29 25 23 23 20 15 12 8 10 10 9 23 32 29 20
9 4 3 5 14 13 10 9 10 9 10 14 8 8 27 18 15 4 5 5 17 23 25 38 39 35 36 26 29 36 33 29 26 21 17 14 7 5 6 10 12 14 20 17
3 7 5 11 9 7 8 12 9 19 18 18 20 21 18 10 10 11 10 8 8 16 21 28 32 31 29 31 33 30 33 28 25 24 22 18 14 11 8 10 16 16 18 19
10 10 17 27 12 12 26 29 33 21 27 17 24 17 12 2 7 7 6 13 15 18 21 20 19 21 27 31 28 25 22 24 25 26 29 23 19 14 12 15 15 15 14 14
10 4 13 16 25 19 17 17 24 32 16 22 14 12 9 7 10 19 21 23 22 26 28 28 23 22 24 29 27 29 31 32 30 31 28 26 25 24 26 33 31 20 15 12
5 29 34 26 24 15 12 10 17 22 23 22 16 16 12 19 26 30 31 28 24 27 31 33 30 27 26 26 26 28 29 27 27 26 26 32 30 30 26 27 24 27 25 16
4 17 24 22 18 5 5 7 6 13 21 16 10 23 34 35 30 30 31 27 24 24 25 27 26 26 26 24 20 20 21 19 18 14 17 15 16 14 16 18 24 22 21 16
16 20 25 21 12 6 3 2 11 13 10 9 15 8 21 32 36 35 33 31 30 28 26 27 26 27 26 26 25 26 26 19 16 13 8 8 24 24 21 23 26 25 21 20
12 9 9 5 7 16 12 1 3 9 10 12 13 23 24 37 38 44 40 36 31 27 26 23 22 23 30 34 30 25 24 20 15 18 9 1 9 13 17 22 21 23 21 15
8 7 10 2 17 14 6 10 11 23 18 15 15 17 26 30 40 43 39 31 31 29 27 24 22 21 21 25 25 22 32 28 29 20 17 7 8 14 14 8 5 13 16 17
14 13 13 11 12 10 12 13 16 12 25 22 22 18 24 26 29 39 38 42 41 36 29 24 21 20 14 21 25 27 35 34 20 27 28 23 15 11 9 13 5 2 11 15
15 22 13 11 9 9 10 11 17 14 28 33 28 24 31 37 42 44 45 46 40 33 22 23 19 21 19 18 17 22 27 32 25 25 30 27 25 26 20 15 12 15 10 5
13 11 13 10 8 12 20 19 14 13 6 21 27 24 31 40 44 46 42 40 40 36 29 23 25 24 22 21 24 26 22 26 35 31 22 31 29 33 32 29 26 22 20 19
19 15 11 11 13 14 14 7 5 8 13 15 34 30 22 25 27 33 31 35 39 40 36 30 27 22 20 18 23 28 21 22 20 24 30 21 29 33 33 32 30 20 27 21
23 19 14 13 14 13 12 12 11 9 12 21 22 21 22 26 22 31 37 45 44 44 37 38 29 22 21 21 24 33 31 27 24 15 27 29 24 27 29 28 26 27 28 26
26 22 18 16 15 16 14 19 14 13 9 3 15 18 14 16 12 17 23 24 29 33 39 40 44 34 23 23 26 30 35 36 33 30 28 26 32 34 32 29 41 38 31 23
32 27 23 22 19 18 22 21 14 18 14 13 8 12 7 7 8 13 9 14 17 24 34 37 31 37 34 31 34 31 36 35 36 38 39 35 35 35 38 37 33 38 34 37
39 33 30 27 26 27 23 18 15 17 18 18 17 13 10 15 13 14 21 16 13 12 19 24 28 32 29 34 36 35 33 37 41 43 41 49 54 44 44 46 45 39 40 42
42 40 38 33 28 40 33 24 20 21 20 16 15 17 18 18 12 6 19 26 21 19 18 24 21 25 24 33 38 41 45 47 50 50 48 50 49 47 57 62 50 52 46 46
43 45 43 40 36 42 37 34 35 32 29 21 18 22 16 10 21 5 6 11 14 14 9 11 17 11 16 25 32 37 39 41 41 43 43 44 46 55 59 55 59 65 69 61
43 49 51 47 44 42 45 39 40 38 32 28 24 23 18 24 15 17 11 11 16 10 14 11 15 11 14 13 14 22 27 33 41 41 41 41 43 43 45 49 53 65 64 67
46 47 47 50 44 45 46 38 39 38 36 35 44 20 22 24 28 23 16 15 15 8 15 10 9 2 4 1 4 8 21 31 38 48 55 47 45 48 47 48 49 50 57 61
Wind_Direction_500mb
309 253 304 313 325 309 20 2 311 273 151 129 149 151 101 52 205 184 183 191 191 189 196 193 210 190 183 199 207 202 205 205 217 219 225 211 211 221 224 238 249 242 230 223
306 7 3 358 15 23 38 19 353 27 66 41 229 113 68 53 37 171 165 166 177 178 181 192 181 199 217 192 205 206 227 204 220 228 232 236 229 227 223 215 236 237 226 223
306 28 353 60 15 21 57 39 13 12 340 7 59 49 98 92 79 15 127 150 156 158 165 193 201 220 202 193 201 201 205 204 216 238 238 242 247 246 244 245 216 213 217 217
235 36 224 234 24 31 62 34 42 51 18 45 34 61 50 29 106 151 220 133 147 172 179 194 184 196 195 199 195 199 215 220 233 242 241 247 256 257 249 234 248 222 218 209
105 93 317 127 28 18 14 2 10 43 57 25 64 69 38 66 70 100 128 128 102 163 174 179 181 189 194 201 199 199 198 217 230 235 231 216 162 108 199 223 205 188 203 210
341 144 197 339 12 351 308 28 15 88 250 335 73 69 73 94 102 109 54 70 161 138 176 187 177 188 189 185 189 201 207 199 189 170 171 164 159 205 232 127 143 146 142 149
316 97 91 347 300 311 123 176 331 122 194 305 357 36 136 143 140 127 45 132 155 161 171 170 187 200 196 213 195 188 193 184 176 183 198 203 192 231 193 212 218 209 208 214
15 37 339 277 339 79 245 288 44 101 126 104 118 129 137 110 67 66 75 122 157 172 160 162 165 174 180 186 191 188 189 194 201 197 211 211 228 207 222 174 170 188 205 206
150 210 218 195 169 74 38 31 21 81 136 124 137 158 167 164 6 13 82 141 152 162 154 151 156 165 168 165 176 185 194 195 196 193 186 183 183 193 202 175 164 168 181 173
126 175 316 171 120 94 66 40 29 57 98 125 136 184 133 113 162 163 156 152 146 134 134 133 139 146 163 158 161 170 172 176 180 181 173 169 169 163 159 146 143 148 161 178
25 171 190 101 100 79 84 79 42 72 78 141 158 167 159 143 140 135 129 131 134 139 135 131 130 130 133 140 145 142 139 140 151 156 152 155 154 157 160 163 159 163 173 232
152 125 120 129 131 126 76 68 51 122 112 136 144 155 161 159 161 157 148 148 146 149 142 136 138 140 139 138 141 137 139 138 137 151 175 184 171 173 183 190 188 194 206 221
101 103 121 144 136 171 304 257 65 151 141 103 168 167 187 177 173 167 164 170 164 153 142 138 146 154 154 149 144 140 142 152 142 150 128 177 216 221 220 226 218 221 227 249
131 134 152 255 232 200 168 291 296 158 179 152 152 159 169 190 185 181 179 174 161 153 148 142 141 150 157 164 168 157 162 161 155 225 196 170 124 168 197 221 212 230 232 217
166 222 198 252 173 133 156 244 264 193 206 184 168 168 175 184 190 190 185 172 159 150 144 141 143 144 147 170 183 179 179 178 174 187 215 211 129 99 116 136 125 193 184 177
184 206 208 244 208 212 234 233 257 272 196 200 206 183 182 186 190 187 187 185 184 183 189 196 195 193 200 192 188 192 180 177 191 197 192 186 177 177 208 202 170 348 172 162
215 196 181 231 260 254 256 250 257 311 207 199 210 187 181 186 189 197 198 202 208 210 228 228 229 235 236 235 210 207 204 198 205 202 209 197 195 193 173 187 202 202 207 198
214 181 187 201 227 249 243 250 255 267 191 212 199 184 194 190 198 205 206 208 214 227 229 227 233 234 235 230 218 213 206 214 214 223 217 208 196 202 200 198 199 206 218 229
207 216 233 248 249 247 257 270 226 242 279 209 188 199 224 224 221 227 218 214 219 219 224 234 243 238 235 227 211 197 201 230 237 231 221 204 216 219 211 207 212 216 222 225
202 203 214 227 226 226 225 229 201 192 100 131 176 190 209 217 215 229 234 230 238 236 226 236 246 246 233 229 217 206 198 220 244 245 216 209 221 230 217 217 221 227 240 246
201 198 203 213 215 213 213 200 192 195 191 124 117 134 164 179 201 215 232 239 244 238 219 231 240 241 232 246 236 221 210 210 228 246 252 244 237 237 253 241 230 226 235 244
201 198 201 203 208 207 203 214 216 224 217 218 234 235 223 203 236 251 274 281 248 239 230 234 229 234 244 232 242 242 235 225 223 235 237 242 251 250 249 252 249 236 235 237
202 199 202 200 204 202 197 197 205 200 206 219 227 229 236 248 262 256 264 274 230 237 220 229 239 246 246 233 239 245 249 251 250 255 261 250 249 251 253 257 256 250 242 241
198 199 202 200 208 202 189 194 204 202 211 215 238 237 229 237 241 13 273 251 229 225 232 234 244 229 237 245 246 247 247 243 248 261 255 253 256 258 253 252 249 240 244 243
200 203 202 198 206 207 209 202 201 202 205 227 216 225 250 248 236 226 65 165 183 175 183 243 267 271 250 254 253 257 258 264 267 270 268 267 264 258 255 257 248 247 245 252
207 206 204 203 206 209 202 205 212 213 222 219 221 225 221 232 194 197 236 210 213 239 248 238 231 241 255 257 276 268 262 259 264 263 264 265 262 263 265 261 257 248 255 244
216 211 205 210 209 209 209 205 220 210 223 211 221 219 211 194 187 196 216 221 221 221 179 191 240 38 38 170 252 282 272 270 275 274 268 269 269 271 269 263 256 257 254 253
Wind_Speed_850mb
18 5 7 15 16 18 21 34 9 4 18 20 13 13 9 17 42 56 72 81 67 77 85 84 62 61 55 54 58 61 56 49 41 50 46 52 43 39 40 37 28 28 28 26
16 22 21 21 28 26 29 44 33 15 16 10 9 34 42 38 37 22 39 58 64 68 72 85 93 67 45 52 44 72 52 47 46 42 38 41 46 52 43 41 34 33 32 34
8 16 17 15 31 35 24 31 12 16 11 7 8 13 18 38 57 35 26 35 51 60 55 59 88 78 60 51 58 55 50 52 50 42 41 44 53 52 57 46 47 44 43 39
1 11 3 5 27 31 33 27 25 25 26 14 17 18 22 32 40 38 21 19 36 48 48 50 50 48 52 58 53 48 44 37 36 34 35 38 31 43 54 49 50 49 45 30
7 6 8 3 14 22 13 15 26 14 9 23 17 39 46 24 22 21 7 8 17 27 48 55 47 54 53 49 45 38 28 25 27 20 15 12 13 11 42 45 43 34 33 32
9 3 7 2 13 18 14 7 26 18 4 13 15 9 5 18 15 9 3 4 6 14 24 41 44 39 41 42 36 29 25 23 23 20 15 12 8 10 10 9 23 32 29 20
9 4 3 5 14 13 10 9 10 9 10 14 8 8 27 18 15 4 5 5 17 23 25 38 39 35 36 26 29 36 33 29 26 21 17 14 7 5 6 10 12 14 20 17
3 7 5 11 9 7 8 12 9 19 18 18 20 21 18 10 10 11 10 8 8 16 21 28 32 31 29 31 33 30 33 28 25 24 22 18 14 11 8 10 16 16 18 19
10 10 17 27 12 12 26 29 33 21 27 17 24 17 12 2 7 7 6 13 15 18 21 20 19 21 27 31 28 25 22 24 25 26 29 23 19 14 12 15 15 15 14 14
10 4 13 16 25 19 17 17 24 32 16 22 14 12 9 7 10 19 21 23 22 26 28 28 23 22 24 29 27 29 31 32 30 31 28 26 25 24 26 33 31 20 15 12
5 29 34 26 24 15 12 10 17 22 23 22 16 16 12 19 26 30 31 28 24 27 31 33 30 27 26 26 26 28 29 27 27 26 26 32 30 30 26 27 24 27 25 16
4 17 24 22 18 5 5 7 6 13 21 16 10 23 34 35 30 30 31 27 24 24 25 27 26 26 26 24 20 20 21 19 18 14 17 15 16 14 16 18 24 22 21 16
16 20 25 21 12 6 3 2 11 13 10 9 15 8 21 32 36 35 33 31 30 28 26 27 26 27 26 26 25 26 26 19 16 13 8 8 24 24 21 23 26 25 21 20
12 9 9 5 7 16 12 1 3 9 10 12 13 23 24 37 38 44 40 36 31 27 26 23 22 23 30 34 30 25 24 20 15 18 9 1 9 13 17 22 21 23 21 15
8 7 10 2 17 14 6 10 11 23 18 15 15 17 26 30 40 43 39 31 31 29 27 24 22 21 21 25 25 22 32 28 29 20 17 7 8 14 14 8 5 13 16 17
14 13 13 11 12 10 12 13 16 12 25 22 22 18 24 26 29 39 38 42 41 36 29 24 21 20 14 21 25 27 35 34 20 27 28 23 15 11 9 13 5 2 11 15
15 22 13 11 9 9 10 11 17 14 28 33 28 24 31 37 42 44 45 46 40 33 22 23 19 21 19 18 17 22 27 32 25 25 30 27 25 26 20 15 12 15 10 5
13 11 13 10 8 12 20 19 14 13 6 21 27 24 31 40 44 46 42 40 40 36 29 23 25 24 22 21 24 26 22 26 35 31 22 31 29 33 32 29 26 22 20 19
19 15 11 11 13 14 14 7 5 8 13 15 34 30 22 25 27 33 31 35 39 40 36 30 27 22 20 18 23 28 21 22 20 24 30 21 29 33 33 32 30 20 27 21
23 19 14 13 14 13 12 12 11 9 12 21 22 21 22 26 22 31 37 45 44 44 37 38 29 22 21 21 24 33 31 27 24 15 27 29 24 27 29 28 26 27 28 26
26 22 18 16 15 16 14 19 14 13 9 3 15 18 14 16 12 17 23 24 29 33 39 40 44 34 23 23 26 30 35 36 33 30 28 26 32 34 32 29 41 38 31 23
32 27 23 22 19 18 22 21 14 18 14 13 8 12 7 7 8 13 9 14 17 24 34 37 31 37 34 31 34 31 36 35 36 38 39 35 35 35 38 37 33 38 34 37
39 33 30 27 26 27 23 18 15 17 18 18 17 13 10 15 13 14 21 16 13 12 19 24 28 32 29 34 36 35 33 37 41 43 41 49 54 44 44 46 45 39 40 42
42 40 38 33 28 40 33 24 20 21 20 16 15 17 18 18 12 6 19 26 21 19 18 24 21 25 24 33 38 41 45 47 50 50 48 50 49 47 57 62 50 52 46 46
43 45 43 40 36 42 37 34 35 32 29 21 18 22 16 10 21 5 6 11 14 14 9 11 17 11 16 25 32 37 39 41 41 43 43 44 46 55 59 55 59 65 69 61
43 49 51 47 44 42 45 39 40 38 32 28 24 23 18 24 15 17 11 11 16 10 14 11 15 11 14 13 14 22 27 33 41 41 41 41 43 43 45 49 53 65 64 67
46 47 47 50 44 45 46 38 39 38 36 35 44 20 22 24 28 23 16 15 15 8 15 10 9 2 4 1 4 8 21 31 38 48 55 47 45 48 47 48 49 50 57 61
Wind_Direction_850mb
309 253 304 313 325 309 20 2 311 273 151 129 149 151 101 52 205 184 183 191 191 189 196 193 210 190 183 199 207 202 205 205 217 219 225 211 211 221 224 238 249 242 230 223
306 7 3 358 15 23 38 19 353 27 66 41 229 113 68 53 37 171 165 166 177 178 181 192 181 199 217 192 205 206 227 204 220 228 232 236 229 227 223 215 236 237 226 223
306 28 353 60 15 21 57 39 13 12 340 7 59 49 98 92 79 15 127 150 156 158 165 193 201 220 202 193 201 201 205 204 216 238 238 242 247 246 244 245 216 213 217 217
235 36 224 234 24 31 62 34 42 51 18 45 34 61 50 29 106 151 220 133 147 172 179 194 184 196 195 199 195 199 215 220 233 242 241 247 256 257 249 234 248 222 218 209
105 93 317 127 28 18 14 2 10 43 57 25 64 69 38 66 70 100 128 128 102 163 174 179 181 189 194 201 199 199 198 217 230 235 231 216 162 108 199 223 205 188 203 210
341 144 197 339 12 351 308 28 15 88 250 335 73 69 73 94 102 109 54 70 161 138 176 187 177 188 189 185 189 201 207 199 189 170 171 164 159 205 232 127 143 146 142 149
316 97 91 347 300 311 123 176 331 122 194 305 357 36 136 143 140 127 45 132 155 161 171 170 187 200 196 213 195 188 193 184 176 183 198 203 192 231 193 212 218 209 208 214
15 37 339 277 339 79 245 288 44 101 126 104 118 129 137 110 67 66 75 122 157 172 160 162 165 174 180 186 191 188 189 194 201 197 211 211 228 207 222 174 170 188 205 206
150 210 218 195 169 74 38 31 21 81 136 124 137 158 167 164 6 13 82 141 152 162 154 151 156 165 168 165 176 185 194 195 196 193 186 183 183 193 202 175 164 168 181 173
126 175 316 171 120 94 66 40 29 57 98 125 136 184 133 113 162 163 156 152 146 134 134 133 139 146 163 158 161 170 172 176 180 181 173 169 169 163 159 146 143 148 161 178
25 171 190 101 100 79 84 79 42 72 78 141 158 167 159 143 140 135 129 131 134 139 135 131 130 130 133 140 145 142 139 140 151 156 152 155 154 157 160 163 159 163 173 232
152 125 120 129 131 126 76 68 51 122 112 136 144 155 161 159 161 157 148 148 146 149 142 136 138 140 139 138 141 137 139 138 137 151 175 184 171 173 183 190 188 194 206 221
101 103 121 144 136 171 304 257 65 151 141 103 168 167 187 177 173 167 164 170 164 153 142 138 146 154 154 149 144 140 142 152 142 150 128 177 216 221 220 226 218 221 227 249
131 134 152 255 232 200 168 291 296 158 179 152 152 159 169 190 185 181 179 174 161 153 148 142 141 150 157 164 168 157 162 161 155 225 196 170 124 168 197 221 212 230 232 217
166 222 198 252 173 133 156 244 264 193 206 184 168 168 175 184 190 190 185 172 159 150 144 141 143 144 147 170 183 179 179 178 174 187 215 211 129 99 116 136 125 193 184 177
184 206 208 244 208 212 234 233 257 272 196 200 206 183 182 186 190 187 187 185 184 183 189 196 195 193 200 192 188 192 180 177 191 197 192 186 177 177 208 202 170 348 172 162
215 196 181 231 260 254 256 250 257 311 207 199 210 187 181 186 189 197 198 202 208 210 228 228 229 235 236 235 210 207 204 198 205 202 209 197 195 193 173 187 202 202 207 198
214 181 187 201 227 249 243 250 255 267 191 212 199 184 194 190 198 205 206 208 214 227 229 227 233 234 235 230 218 213 206 214 214 223 217 208 196 202 200 198 199 206 218 229
207 216 233 248 249 247 257 270 226 242 279 209 188 199 224 224 221 227 218 214 219 219 224 234 243 238 235 227 211 197 201 230 237 231 221 204 216 219 211 207 212 216 222 225
202 203 214 227 226 226 225 229 201 192 100 131 176 190 209 217 215 229 234 230 238 236 226 236 246 246 233 229 217 206 198 220 244 245 216 209 221 230 217 217 221 227 240 246
201 198 203 213 215 213 213 200 192 195 191 124 117 134 164 179 201 215 232 239 244 238 219 231 240 241 232 246 236 221 210 210 228 246 252 244 237 237 253 241 230 226 235 244
201 198 201 203 208 207 203 214 216 224 217 218 234 235 223 203 236 251 274 281 248 239 230 234 229 234 244 232 242 242 235 225 223 235 237 242 251 250 249 252 249 236 235 237
202 199 202 200 204 202 197 197 205 200 206 219 227 229 236 248 262 256 264 274 230 237 220 229 239 246 246 233 239 245 249 251 250 255 261 250 249 251 253 257 256 250 242 241
198 199 202 200 208 202 189 194 204 202 211 215 238 237 229 237 241 13 273 251 229 225 232 234 244 229 237 245 246 247 247 243 248 261 255 253 256 258 253 252 249 240 244 243
200 203 202 198 206 207 209 202 201 202 205 227 216 225 250 248 236 226 65 165 183 175 183 243 267 271 250 254 253 257 258 264 267 270 268 267 264 258 255 257 248 247 245 252
207 206 204 203 206 209 202 205 212 213 222 219 221 225 221 232 194 197 236 210 213 239 248 238 231 241 255 257 276 268 262 259 264 263 264 265 262 263 265 261 257 248 255 244
216 211 205 210 209 209 209 205 220 210 223 211 221 219 211 194 187 196 216 221 221 221 179 191 240 38 38 170 252 282 272 270 275 274 268 269 269 271 269 263 256 257 254 253